カタログに戻る

STARLINK-35699

運用中通信VLEO
NORAD 66557·PAYLOAD·🇺🇸 United States

打ち上げ Nov 21, 2025 から Cape Canaveral Space Force Station

Loading…

次のパス (今後24時間)

TLE

最新Source: CelesTrak SupGP

元期: Sep 15, 2026, 03:27 UTC

1 66557C 25268A   26258.14423611  .00039353  00000+0  14250-2 0  2581
2 66557  43.0018 357.5520 0001443 267.9513 300.9583 15.27567555    16

AllMySatでSTARLINK-35699をリアルタイム追跡

Download on the App Store